Tracking 19706 objects as of 16-Jun-2019
HD Live streaming from Space Station
objects crossing your sky now

TELECOM 1A

Track TELECOM 1A now!
TELECOM 1A is classified as:


NORAD ID: 15159
Int'l Code: 1984-081B
Perigee: 36,163.1 km
Apogee: 36,491.7 km
Inclination: 15.3 °
Period: 1,463.4 minutes
Semi major axis: 42698 km
RCS: 10.2909 m2 (large)
Launch date: August 4, 1984
Source: France (FR)
Launch site: FRENCH GUIANA (FRGUI)
aabbcc
Your satellite tracking list
Your tracking list is empty




NASA's NSSDC Master Catalog

Two Line Element Set (TLE):
1 15159U 84081B   19166.66273260 -.00000091 +00000-0 +00000-0 0  9998
2 15159 015.3106 354.1947 0038478 348.9355 193.9099 00.98397692093442
Source of the keplerian elements: AFSPC